[[{"header":{"parameterUnit":"m.s-1","parameterCategory":1,"la1":30.2991,"la2":30.254,"lo1":-89.0895,"lo2":-89.0444,"dy":0.0017,"dx":0.0017,"nx":28,"ny":28,"refTime":"2023-09-15T03:00:00:Z","depth":0,"parameterNumber":2,"parameterNumberName":"U-component_of_WINDS"},"data":[0,0,0,0,0,0,0,0,0,0,0,0,0,0,0,0,0,0,0,0,0,0,0,0,0,0,0,0,0,0,0,0,0,0,0,0,0,0,0,0,0,0,0,0,0,0,0,0,0,0,0,0,0,0,0,0,0,0,1.8617,1.8618,0,1.8667,1.8668,1.8668,1.8681,1.8681,1.868,1.868,1.8727,1.8729,1.873,0,0,0,0,0,0,0,0,0,0,0,0,0,1.8528,1.8529,1.8617,1.8618,1.8618,1.8667,1.8668,1.8669,1.8681,1.8681,1.868,1.868,1.8727,1.8729,1.8731,0,0,0,0,0,0,0,0,0,0,0,0,0,1.8571,1.853,1.8617,1.8631,1.8632,1.8667,1.8668,1.8669,1.8681,1.8681,1.868,1.868,1.8726,1.8729,1.8731,1.8754,0,0,1.8738,1.8739,0,0,0,0,0,0,0,0,1.8568,1.8574,1.8628,1.863,1.8632,1.8668,1.8654,1.8697,1.8681,1.8663,1.868,1.868,1.8708,1.8711,1.8722,1.8757,1.8759,1.8738,1.874,1.8741,1.8741,0,0,0,0,0,0,0,1.8565,1.8572,1.8637,1.8629,1.8631,1.8633,1.8638,1.8662,1.8687,1.8664,1.8665,1.8671,1.8709,1.8719,1.8723,1.8759,1.8738,1.874,1.8742,1.8742,1.8815,1.8816,0,0,0,0,0,0,1.8561,1.857,1.8635,1.8638,1.8598,1.8635,1.8641,1.8656,1.8687,1.8691,1.8672,1.8672,1.8716,1.872,1.8725,1.8754,1.8741,1.8743,1.8744,1.8815,1.8816,1.8816,0,0,0,0,0,0,1.8559,1.8566,1.8633,1.8604,1.8613,1.8637,1.8654,1.8658,1.8669,1.8692,1.8696,1.8678,1.8716,1.8721,1.8747,1.8756,1.8744,1.8746,1.8814,1.8815,1.8816,1.8812,0,0,0,0,0,0,1.8556,1.8566,1.8576,1.8605,1.8614,1.8656,1.8655,1.8659,1.8673,1.8674,1.87,1.8704,1.8716,1.8744,1.8749,1.8759,1.8748,1.8814,1.8815,1.8816,1.8812,1.8813,1.8814,0,0,0,0,0,1.8553,1.8572,1.8576,1.8584,1.8628,1.8657,1.8662,1.8677,1.8674,1.8684,1.8699,1.8703,1.8754,1.8746,1.8753,1.8763,1.8813,1.8814,1.8816,1.8811,1.8813,1.8814,0,0,0,0,0,0,1.8542,1.8576,1.8581,1.8611,1.8631,1.8659,1.8671,1.8678,1.8698,1.8697,1.8713,1.8719,1.8743,1.8756,1.8746,1.8787,1.8783,1.8786,1.8778,1.8779,1.8781,1.8777,1.875,0,0,0,0,0,1.8544,1.8565,1.8593,1.8616,1.8626,1.8647,1.866,1.867,1.8691,1.8699,1.8716,1.8735,1.8755,1.8768,1.8788,1.8814,1.8819,1.8824,1.8825,1.8826,1.8828,1.8842,1.8844,1.882,1.882,1.882,0,0,1.8546,1.8567,1.858,1.8615,1.8632,1.8652,1.8654,1.8676,1.8691,1.8702,1.8727,1.874,1.8763,1.8788,1.8801,1.8799,1.8836,1.8828,1.8828,1.8829,1.8843,1.8845,1.8847,1.8821,1.8821,1.8821,0,0,1.8561,1.858,1.8601,1.8618,1.8644,1.8658,1.8663,1.869,1.8699,1.8726,1.8734,1.8751,1.8786,1.8802,1.8814,1.8835,1.884,1.8841,1.8846,1.886,1.8862,1.8863,1.887,1.8873,1.8843,1.8843,1.8843,0,1.856,1.8593,1.861,1.8632,1.8647,1.8659,1.868,1.8695,1.8725,1.8735,1.8733,1.8777,1.8793,1.8822,1.8828,1.8838,1.8843,1.8838,1.886,1.8862,1.8864,1.8871,1.8873,1.8843,1.8843,1.8843,1.8843,0,1.8591,1.8614,1.8627,1.8658,1.8674,1.8695,1.8714,1.8728,1.8737,1.875,1.8776,1.8796,1.882,1.8828,1.8835,1.8858,1.8856,1.8858,1.8854,1.8866,1.8872,1.8875,1.8843,1.8843,1.8843,1.8843,0,0,1.86,1.864,1.8645,1.8659,1.8689,1.8706,1.8727,1.8752,1.8763,1.8784,1.8801,1.8831,1.8832,1.8846,1.8856,1.8868,1.8882,1.8867,1.8868,1.8869,1.8907,1.8906,1.8908,1.8886,1.8886,1.8887,1.8905,0,1.8618,1.8658,1.8674,1.8705,1.8726,1.8738,1.8756,1.8775,1.8789,1.8807,1.8821,1.8841,1.8842,1.8851,1.8863,1.8878,1.889,1.8877,1.8901,1.8901,1.8894,1.8912,1.891,1.8927,1.8908,1.8908,1.8909,0,1.8644,1.8666,1.8701,1.8728,1.8737,1.8753,1.8777,1.8795,1.8817,1.8826,1.8842,1.8851,1.8872,1.8868,1.8897,1.8888,1.8898,1.8907,1.8908,1.891,1.8905,1.8913,1.8932,1.8935,1.8913,1.8913,1.8912,0,1.8646,1.8685,1.871,1.8722,1.8754,1.8765,1.8779,1.8801,1.8815,1.8835,1.8844,1.8866,1.8878,1.8895,1.8909,1.8905,1.8936,1.8934,1.8943,1.8943,1.8948,1.8948,1.8968,1.8957,1.8957,1.8957,1.8956,0,1.8664,1.8684,1.8711,1.8727,1.875,1.8767,1.8789,1.8803,1.8822,1.884,1.8851,1.8867,1.8885,1.8903,1.8914,1.8936,1.8942,1.8948,1.8951,1.8947,1.8946,1.8953,1.8952,1.8957,1.8957,1.8957,1.8957,0,1.867,1.8689,1.8717,1.8746,1.8754,1.8769,1.8793,1.8808,1.8822,1.8844,1.885,1.8872,1.8893,1.891,1.8937,1.8945,1.8968,1.8971,1.8961,1.8962,1.897,1.8969,1.8996,1.9,1.8986,1.8986,1.8986,0,1.868,1.8696,1.8727,1.874,1.8754,1.8775,1.879,1.8808,1.8822,1.8848,1.886,1.8882,1.8902,1.8935,1.8953,1.8974,1.8977,1.8985,1.898,1.8975,1.8976,1.8975,1.8976,1.8985,1.8985,1.8985,1.8985,0,1.8695,1.8704,1.8725,1.875,1.8767,1.8787,1.8807,1.8817,1.8838,1.8854,1.8877,1.8892,1.8921,1.8943,1.8966,1.8978,1.8985,1.8987,1.899,1.8986,1.8979,1.8982,1.8962,1.8986,1.8986,1.8986,1.8986,1.8986,1.8702,1.8717,1.8741,1.8765,1.8782,1.88,1.8816,1.8832,1.8852,1.8878,1.8887,1.8911,1.8931,1.8963,1.8976,1.8994,1.8994,1.8999,1.9,1.9001,1.9,1.8977,1.8998,1.8998,1.8998,1.8998,1.8998,0,1.8717,1.8734,1.8755,1.8784,1.8802,1.8808,1.883,1.8845,1.8866,1.8885,1.8905,1.8931,1.8952,1.8971,1.8994,1.9004,1.9008,1.9009,1.9008,1.9011,1.8999,1.8994,1.9006,1.9006,1.9006,1.9006,1.9006,1.9006,1.8727,1.8752,1.8764,1.8797,1.8813,1.8838,1.885,1.8867,1.8882,1.8912,1.893,1.8943,1.8962,1.8986,1.9006,1.9011,1.9018,1.9019,1.9024,1.9013,1.9012,1.9011,1.9006,1.902,1.902,1.9034,1.9034,1.9035]},{"header":{"parameterUnit":"m.s-1","parameterCategory":1,"la1":30.2991,"la2":30.254,"lo1":-89.0895,"lo2":-89.0444,"dy":0.0017,"dx":0.0017,"nx":28,"ny":28,"refTime":"2023-09-15T03:00:00:Z","depth":0,"parameterNumber":3,"parameterNumberName":"V-component_of_WINDS"},"data":[0,0,0,0,0,0,0,0,0,0,0,0,0,0,0,0,0,0,0,0,0,0,0,0,0,0,0,0,0,0,0,0,0,0,0,0,0,0,0,0,0,0,0,0,0,0,0,0,0,0,0,0,0,0,0,0,0,0,1.1478,1.1477,0,1.1442,1.1442,1.1441,1.1383,1.1382,1.1381,1.138,1.1344,1.1344,1.1344,0,0,0,0,0,0,0,0,0,0,0,0,0,1.1493,1.1493,1.1478,1.1477,1.1477,1.1442,1.1442,1.1441,1.1384,1.1382,1.1381,1.138,1.1344,1.1344,1.1344,0,0,0,0,0,0,0,0,0,0,0,0,0,1.1475,1.1493,1.1478,1.1444,1.144,1.1442,1.1442,1.1441,1.1384,1.1382,1.1381,1.1379,1.1344,1.1344,1.1344,1.1376,0,0,1.1344,1.1344,0,0,0,0,0,0,0,0,1.1476,1.1474,1.1449,1.1446,1.1442,1.1416,1.1434,1.1419,1.1384,1.1405,1.138,1.1378,1.1369,1.1367,1.1364,1.1374,1.1373,1.1344,1.1344,1.1344,1.1344,0,0,0,0,0,0,0,1.1477,1.1476,1.1464,1.1449,1.1445,1.143,1.1425,1.1431,1.1397,1.1403,1.1399,1.1396,1.1367,1.1364,1.1362,1.1372,1.1344,1.1344,1.1344,1.1344,1.1405,1.1407,0,0,0,0,0,0,1.1484,1.1477,1.1465,1.1462,1.1456,1.1431,1.1426,1.1426,1.1396,1.139,1.1397,1.1393,1.1364,1.1362,1.1361,1.1395,1.1344,1.1344,1.1344,1.1404,1.1406,1.1407,0,0,0,0,0,0,1.1484,1.1483,1.1466,1.1469,1.1465,1.1432,1.1432,1.1426,1.1423,1.1392,1.1385,1.14,1.1363,1.1361,1.1372,1.1393,1.1344,1.1344,1.1402,1.1404,1.1407,1.1466,0,0,0,0,0,0,1.1485,1.1484,1.1496,1.1469,1.1465,1.1479,1.1434,1.1426,1.1423,1.1418,1.1393,1.1387,1.1362,1.1373,1.1372,1.1393,1.1344,1.14,1.1403,1.1406,1.1462,1.147,1.1477,0,0,0,0,0,1.1486,1.1515,1.1497,1.1496,1.148,1.148,1.1478,1.1448,1.1425,1.1437,1.1416,1.1388,1.1391,1.1374,1.1373,1.1394,1.1398,1.1402,1.1406,1.1459,1.1468,1.1477,0,0,0,0,0,0,1.1546,1.1511,1.1491,1.1512,1.15,1.1471,1.1485,1.146,1.1453,1.1448,1.1411,1.1406,1.1422,1.1409,1.1391,1.1423,1.139,1.1394,1.1431,1.144,1.1447,1.145,1.1344,0,0,0,0,0,1.1561,1.1565,1.1534,1.1555,1.155,1.1519,1.1517,1.1495,1.1481,1.1475,1.1455,1.1442,1.1439,1.1439,1.1435,1.1459,1.1452,1.1473,1.1481,1.1487,1.1491,1.1501,1.1509,1.1419,1.1419,1.1419,0,0,1.1594,1.1575,1.1579,1.1567,1.1554,1.1558,1.1515,1.152,1.1522,1.1476,1.1485,1.147,1.1453,1.147,1.1477,1.146,1.1514,1.1492,1.1497,1.1497,1.1505,1.1514,1.1521,1.1422,1.1421,1.1421,0,0,1.1655,1.1641,1.1657,1.1645,1.1627,1.1605,1.1609,1.1583,1.1571,1.158,1.1545,1.1546,1.1543,1.1532,1.1525,1.158,1.1553,1.1579,1.1619,1.1629,1.1636,1.1642,1.1661,1.1668,1.1583,1.1583,1.1583,0,1.1697,1.1701,1.1668,1.1676,1.1671,1.1628,1.1643,1.1633,1.1615,1.1612,1.1593,1.1587,1.1572,1.1586,1.1599,1.1596,1.1598,1.1582,1.1638,1.1644,1.1649,1.1666,1.1673,1.1586,1.1586,1.1586,1.1585,0,1.1754,1.1757,1.1772,1.1755,1.1751,1.1763,1.173,1.1731,1.1708,1.1688,1.1697,1.1677,1.1668,1.167,1.1648,1.168,1.1669,1.1645,1.1611,1.1661,1.1676,1.1683,1.1591,1.159,1.1589,1.1588,0,0,1.1853,1.1816,1.1822,1.1812,1.1788,1.179,1.1798,1.1789,1.1789,1.1777,1.1783,1.1781,1.1757,1.175,1.1726,1.1736,1.1778,1.1709,1.1708,1.1722,1.181,1.1828,1.1837,1.176,1.1761,1.1762,1.1811,0,1.1908,1.1921,1.1891,1.1911,1.1913,1.1872,1.1879,1.1864,1.1846,1.1844,1.1823,1.1821,1.1791,1.1786,1.1793,1.1772,1.1795,1.1767,1.1764,1.1764,1.177,1.1845,1.1865,1.1912,1.1817,1.1818,1.1819,0,1.1975,1.1966,1.1986,1.1959,1.1958,1.1966,1.1954,1.1953,1.1935,1.192,1.1912,1.1884,1.1889,1.1857,1.1863,1.1845,1.1841,1.183,1.1831,1.183,1.1795,1.1845,1.1927,1.1934,1.1828,1.1827,1.1827,0,1.2044,1.2036,1.2047,1.2041,1.201,1.2015,1.2003,1.1983,1.1979,1.1968,1.1964,1.1955,1.1949,1.1942,1.1911,1.1891,1.1921,1.1886,1.1908,1.1909,1.1917,1.1917,1.1999,1.1915,1.1915,1.1915,1.1915,0,1.2109,1.2123,1.2078,1.2084,1.2098,1.2062,1.2077,1.206,1.2042,1.2044,1.2008,1.201,1.197,1.1967,1.1944,1.1952,1.195,1.1937,1.1931,1.1941,1.1942,1.1938,1.1934,1.1917,1.1916,1.1916,1.1915,0,1.2188,1.2159,1.2168,1.2137,1.2129,1.2141,1.2114,1.2118,1.2097,1.2099,1.2098,1.2064,1.2059,1.2028,1.2016,1.2,1.2016,1.2003,1.2023,1.2018,1.2042,1.204,1.2124,1.2133,1.2044,1.2045,1.2046,0,1.2231,1.2241,1.2211,1.221,1.2198,1.2197,1.2192,1.2156,1.2153,1.2132,1.2138,1.213,1.2122,1.2116,1.209,1.208,1.2066,1.2096,1.2065,1.2074,1.2066,1.2066,1.2066,1.2103,1.2105,1.2105,1.2106,0,1.2311,1.2295,1.229,1.2279,1.2275,1.2264,1.2252,1.2253,1.2213,1.2211,1.2205,1.2199,1.2186,1.2178,1.2163,1.2149,1.2121,1.2116,1.2121,1.2131,1.2141,1.2135,1.2041,1.2115,1.2114,1.2113,1.2113,1.2112,1.2373,1.2379,1.2359,1.2353,1.234,1.2329,1.2331,1.2309,1.2304,1.2291,1.227,1.2267,1.2246,1.2224,1.2212,1.2208,1.2192,1.2199,1.22,1.2202,1.2207,1.2142,1.2205,1.2205,1.2205,1.2205,1.2204,0,1.245,1.2435,1.243,1.2413,1.2409,1.2382,1.2367,1.2365,1.2363,1.2346,1.2338,1.2331,1.2323,1.2295,1.2284,1.2286,1.2273,1.2284,1.2284,1.2281,1.2223,1.222,1.2295,1.2295,1.2295,1.2295,1.2295,1.2295,1.249,1.2498,1.248,1.2481,1.2465,1.2462,1.2455,1.2444,1.243,1.2424,1.2417,1.2399,1.2377,1.2364,1.2355,1.2347,1.2344,1.236,1.2347,1.2294,1.2285,1.2277,1.2274,1.2359,1.236,1.2406,1.2406,1.2406]}]]